| time (UTC) | temp F | wind direction | speed MPH | gust MPH | rain 1hr in | rain 24hr in | rain mn in | humidity % | barometer mb |
| 20260506080109 | 34 | 355 | 1.0 | 4.0 | 0.00 | 0.00 | 0.00 | 68 | 1015.0 |
| 20260506073057 | 34 | 306 | 0.0 | 3.0 | 0.00 | 0.00 | 0.00 | 66 | 1015.3 |
| 20260506072600 | 34 | 295 | 0.0 | 3.0 | 0.00 | 0.00 | 0.00 | 66 | 1015.4 |
| 20260506072057 | 34 | 313 | 0.0 | 3.0 | 0.00 | 0.00 | 0.00 | 65 | 1015.4 |
| 20260506071620 | 34 | 307 | 0.0 | 3.0 | 0.00 | 0.00 | 0.00 | 65 | 1015.2 |
| 20260506071056 | 34 | 301 | 0.0 | 3.0 | 0.00 | 0.00 | 0.00 | 64 | 1015.2 |
| 20260506070558 | 34 | 291 | 0.0 | 2.0 | 0.00 | 0.00 | 0.00 | 64 | 1015.2 |
| 20260506062058 | 35 | 303 | 1.0 | 3.0 | 0.00 | 0.00 | 0.00 | 64 | 1015.2 |
| 20260506061600 | 35 | 304 | 0.0 | 3.0 | 0.00 | 0.00 | 0.00 | 64 | 1015.2 |
| 20260506061058 | 35 | 0 | 0.0 | 3.0 | 0.00 | 0.00 | 0.00 | 64 | 1015.1 |
| 20260506060602 | 35 | 327 | 1.0 | 3.0 | 0.00 | 0.00 | 0.00 | 64 | 1015.0 |
| 20260506051059 | 34 | 319 | 1.0 | 4.0 | 0.00 | 0.00 | 0.00 | 61 | 1014.9 |
| 20260506050559 | 34 | 293 | 1.0 | 4.0 | 0.00 | 0.00 | 0.00 | 61 | 1014.9 |
| 20260506045101 | 34 | 0 | 1.0 | 3.0 | 0.00 | 0.00 | 0.00 | 60 | 1014.9 |
| 20260506044611 | 34 | 298 | 1.0 | 3.0 | 0.00 | 0.00 | 0.00 | 60 | 1014.9 |
| 20260506044059 | 34 | 295 | 1.0 | 3.0 | 0.00 | 0.00 | 0.00 | 60 | 1014.9 |
| 20260506043559 | 34 | 295 | 1.0 | 3.0 | 0.00 | 0.00 | 0.00 | 59 | 1014.9 |
| 20260506043059 | 35 | 308 | 0.0 | 3.0 | 0.00 | 0.00 | 0.00 | 59 | 1014.9 |
| 20260506042559 | 35 | 315 | 1.0 | 2.0 | 0.00 | 0.00 | 0.00 | 58 | 1014.9 |
| 20260506042058 | 35 | 323 | 0.0 | 2.0 | 0.00 | 0.00 | 0.00 | 58 | 1015.0 |
| 20260506041558 | 35 | 0 | 1.0 | 4.0 | 0.00 | 0.00 | 0.00 | 59 | 1015.0 |
| 20260506041058 | 35 | 9 | 0.0 | 4.0 | 0.00 | 0.00 | 0.00 | 58 | 1015.0 |
| 20260506040558 | 35 | 9 | 1.0 | 4.0 | 0.00 | 0.00 | 0.00 | 58 | 1015.0 |
| 20260506040057 | 36 | 288 | 2.0 | 4.0 | 0.00 | 0.00 | 0.00 | 57 | 1015.0 |
| 20260506035555 | 36 | 286 | 1.0 | 4.0 | 0.00 | 0.00 | 0.00 | 57 | 1014.9 |
| 20260506035059 | 36 | 269 | 1.0 | 4.0 | 0.00 | 0.00 | 0.00 | 56 | 1014.9 |
| 20260506034601 | 36 | 274 | 2.0 | 4.0 | 0.00 | 0.00 | 0.00 | 55 | 1014.8 |
| 20260506034056 | 36 | 293 | 1.0 | 4.0 | 0.00 | 0.00 | 0.00 | 55 | 1014.8 |
| 20260506033559 | 37 | 301 | 1.0 | 4.0 | 0.00 | 0.00 | 0.00 | 54 | 1014.7 |
| 20260506033057 | 37 | 301 | 1.0 | 4.0 | 0.00 | 0.00 | 0.00 | 54 | 1014.6 |
| 20260506032559 | 37 | 294 | 1.0 | 4.0 | 0.00 | 0.00 | 0.00 | 54 | 1014.5 |
| 20260506032059 | 37 | 293 | 2.0 | 4.0 | 0.00 | 0.00 | 0.00 | 53 | 1014.4 |
| 20260506031558 | 37 | 296 | 2.0 | 5.0 | 0.00 | 0.00 | 0.00 | 53 | 1014.3 |
| 20260506031102 | 38 | 304 | 2.0 | 5.0 | 0.00 | 0.00 | 0.00 | 52 | 1014.3 |
| 20260506030600 | 38 | 308 | 2.0 | 6.0 | 0.00 | 0.00 | 0.00 | 52 | 1014.3 |
| 20260506030100 | 38 | 300 | 1.0 | 6.0 | 0.00 | 0.00 | 0.00 | 52 | 1014.3 |
| 20260506025600 | 38 | 272 | 2.0 | 4.0 | 0.00 | 0.00 | 0.00 | 52 | 1014.3 |
| 20260506025058 | 39 | 282 | 2.0 | 4.0 | 0.00 | 0.00 | 0.00 | 52 | 1014.3 |
| 20260506024559 | 39 | 287 | 2.0 | 4.0 | 0.00 | 0.00 | 0.00 | 51 | 1014.2 |
| 20260506024059 | 39 | 297 | 2.0 | 4.0 | 0.00 | 0.00 | 0.00 | 51 | 1014.1 |
| 20260506023559 | 39 | 301 | 2.0 | 4.0 | 0.00 | 0.00 | 0.00 | 51 | 1014.0 |
| 20260506023059 | 40 | 319 | 1.0 | 6.0 | 0.00 | 0.00 | 0.00 | 50 | 1014.0 |
| 20260506022600 | 40 | 296 | 2.0 | 6.0 | 0.00 | 0.00 | 0.00 | 50 | 1014.0 |
| 20260506022100 | 40 | 301 | 2.0 | 8.0 | 0.00 | 0.00 | 0.00 | 49 | 1013.9 |
| 20260506021559 | 40 | 317 | 3.0 | 8.0 | 0.00 | 0.00 | 0.00 | 49 | 1013.8 |
| 20260506021058 | 41 | 298 | 2.0 | 6.0 | 0.00 | 0.00 | 0.00 | 49 | 1013.6 |
| 20260506020601 | 41 | 289 | 2.0 | 6.0 | 0.00 | 0.00 | 0.00 | 48 | 1013.7 |
| 20260506020057 | 41 | 302 | 2.0 | 5.0 | 0.00 | 0.00 | 0.00 | 48 | 1013.5 |
| 20260506015600 | 41 | 338 | 2.0 | 9.0 | 0.00 | 0.00 | 0.00 | 48 | 1013.4 |
| 20260506015059 | 42 | 302 | 2.0 | 9.0 | 0.00 | 0.00 | 0.00 | 48 | 1013.3 |
| 20260506014559 | 42 | 326 | 2.0 | 9.0 | 0.00 | 0.00 | 0.00 | 48 | 1013.2 |
| 20260506014059 | 42 | 289 | 3.0 | 9.0 | 0.00 | 0.00 | 0.00 | 48 | 1013.2 |
| 20260506013559 | 42 | 290 | 3.0 | 11.0 | 0.00 | 0.00 | 0.00 | 48 | 1013.1 |
| 20260506013059 | 42 | 325 | 4.0 | 11.0 | 0.00 | 0.00 | 0.00 | 48 | 1013.2 |
| 20260506012559 | 43 | 305 | 3.0 | 14.0 | 0.00 | 0.00 | 0.00 | 47 | 1013.2 |
| 20260506012103 | 43 | 319 | 3.0 | 14.0 | 0.00 | 0.00 | 0.00 | 47 | 1013.2 |
| 20260506011557 | 43 | 323 | 5.0 | 14.0 | 0.00 | 0.00 | 0.00 | 46 | 1013.3 |
| 20260506011059 | 43 | 340 | 3.0 | 13.0 | 0.00 | 0.00 | 0.00 | 46 | 1013.2 |
| 20260506010559 | 43 | 330 | 4.0 | 13.0 | 0.00 | 0.00 | 0.00 | 45 | 1013.1 |
| 20260506005600 | 44 | 317 | 4.0 | 17.0 | 0.00 | 0.00 | 0.00 | 44 | 1013.0 |
| 20260506005058 | 44 | 5 | 5.0 | 14.0 | 0.00 | 0.00 | 0.00 | 44 | 1012.9 |
| 20260506004604 | 44 | 271 | 5.0 | 14.0 | 0.00 | 0.00 | 0.00 | 44 | 1012.9 |
| 20260506004059 | 45 | 313 | 6.0 | 14.0 | 0.00 | 0.00 | 0.00 | 44 | 1012.9 |
| 20260506003604 | 45 | 331 | 6.0 | 14.0 | 0.00 | 0.00 | 0.00 | 44 | 1012.8 |
| 20260506003107 | 45 | 330 | 6.0 | 14.0 | 0.00 | 0.00 | 0.00 | 44 | 1012.8 |
| 20260506002601 | 45 | 291 | 7.0 | 14.0 | 0.00 | 0.00 | 0.00 | 43 | 1012.7 |
| 20260506002058 | 45 | 312 | 5.0 | 16.0 | 0.00 | 0.00 | 0.00 | 43 | 1012.7 |
| 20260506001606 | 45 | 314 | 3.0 | 16.0 | 0.00 | 0.00 | 0.00 | 43 | 1012.6 |
| 20260506001056 | 46 | 309 | 7.0 | 16.0 | 0.00 | 0.00 | 0.00 | 42 | 1012.6 |
| 20260506000559 | 46 | 304 | 4.0 | 14.0 | 0.00 | 0.00 | 0.00 | 42 | 1012.7 |
| 20260506000110 | 46 | 317 | 8.0 | 19.0 | 0.00 | 0.00 | 0.00 | 42 | 1012.5 |
| 20260505235600 | 46 | 288 | 8.0 | 19.0 | 0.00 | 0.00 | 0.00 | 42 | 1012.5 |
| 20260505235059 | 46 | 296 | 6.0 | 18.0 | 0.00 | 0.00 | 0.00 | 42 | 1012.6 |
| 20260505234613 | 46 | 286 | 6.0 | 18.0 | 0.00 | 0.00 | 0.00 | 42 | 1012.7 |
| 20260505234059 | 46 | 309 | 5.0 | 15.0 | 0.00 | 0.00 | 0.00 | 42 | 1012.5 |
| 20260505233558 | 46 | 325 | 6.0 | 15.0 | 0.00 | 0.00 | 0.00 | 43 | 1012.5 |
| 20260505233058 | 46 | 302 | 6.0 | 12.0 | 0.00 | 0.00 | 0.00 | 43 | 1012.6 |
| 20260505232558 | 46 | 289 | 5.0 | 15.0 | 0.00 | 0.00 | 0.00 | 42 | 1012.5 |
| 20260505232059 | 46 | 290 | 7.0 | 15.0 | 0.00 | 0.00 | 0.00 | 42 | 1012.4 |
| 20260505231556 | 46 | 301 | 6.0 | 13.0 | 0.00 | 0.00 | 0.00 | 42 | 1012.5 |
| 20260505231058 | 46 | 273 | 5.0 | 13.0 | 0.00 | 0.00 | 0.00 | 42 | 1012.4 |
| 20260505230601 | 47 | 321 | 5.0 | 14.0 | 0.00 | 0.00 | 0.00 | 42 | 1012.4 |
| 20260505230057 | 47 | 299 | 5.0 | 14.0 | 0.00 | 0.00 | 0.00 | 42 | 1012.4 |
| 20260505225559 | 47 | 263 | 7.0 | 14.0 | 0.00 | 0.00 | 0.00 | 41 | 1012.4 |
| 20260505225058 | 47 | 274 | 5.0 | 14.0 | 0.00 | 0.00 | 0.00 | 42 | 1012.4 |
| 20260505224603 | 47 | 300 | 7.0 | 16.0 | 0.00 | 0.00 | 0.00 | 42 | 1012.4 |
| 20260505224059 | 47 | 269 | 8.0 | 16.0 | 0.00 | 0.00 | 0.00 | 42 | 1012.4 |
| 20260505223559 | 47 | 278 | 5.0 | 15.0 | 0.00 | 0.00 | 0.00 | 42 | 1012.3 |
| 20260505223113 | 47 | 275 | 6.0 | 14.0 | 0.00 | 0.00 | 0.00 | 42 | 1012.3 |
| 20260505222559 | 47 | 319 | 5.0 | 13.0 | 0.00 | 0.00 | 0.00 | 42 | 1012.3 |
| 20260505222059 | 47 | 277 | 8.0 | 18.0 | 0.00 | 0.00 | 0.00 | 41 | 1012.4 |
| 20260505221606 | 47 | 310 | 8.0 | 18.0 | 0.00 | 0.00 | 0.00 | 40 | 1012.1 |
| 20260505221058 | 47 | 280 | 6.0 | 18.0 | 0.00 | 0.00 | 0.00 | 42 | 1012.2 |
| 20260505220559 | 47 | 298 | 9.0 | 18.0 | 0.00 | 0.00 | 0.00 | 41 | 1012.3 |
| 20260505215602 | 47 | 317 | 8.0 | 17.0 | 0.00 | 0.00 | 0.00 | 40 | 1012.2 |
| 20260505215059 | 47 | 318 | 5.0 | 16.0 | 0.00 | 0.00 | 0.00 | 40 | 1012.3 |
| 20260505214603 | 47 | 272 | 8.0 | 16.0 | 0.00 | 0.00 | 0.00 | 40 | 1012.2 |
| 20260505214101 | 48 | 349 | 10.0 | 16.0 | 0.00 | 0.00 | 0.00 | 39 | 1012.2 |
| 20260505213601 | 48 | 344 | 6.0 | 17.0 | 0.00 | 0.00 | 0.00 | 40 | 1012.2 |
| 20260505213101 | 48 | 296 | 9.0 | 17.0 | 0.00 | 0.00 | 0.00 | 41 | 1012.3 |
| 20260505212559 | 47 | 288 | 8.0 | 16.0 | 0.00 | 0.00 | 0.00 | 40 | 1012.3 |
| 20260505212059 | 48 | 269 | 6.0 | 17.0 | 0.00 | 0.00 | 0.00 | 40 | 1012.4 |
| 20260505211629 | 48 | 254 | 7.0 | 17.0 | 0.00 | 0.00 | 0.00 | 39 | 1012.3 |
| 20260505211059 | 48 | 289 | 8.0 | 16.0 | 0.00 | 0.00 | 0.00 | 39 | 1012.4 |
| 20260505210558 | 48 | 348 | 8.0 | 16.0 | 0.00 | 0.00 | 0.00 | 39 | 1012.4 |
| 20260505210059 | 48 | 317 | 7.0 | 13.0 | 0.00 | 0.00 | 0.00 | 39 | 1012.4 |
| 20260505205559 | 48 | 317 | 6.0 | 14.0 | 0.00 | 0.00 | 0.00 | 40 | 1012.5 |
| 20260505205059 | 48 | 286 | 6.0 | 14.0 | 0.00 | 0.00 | 0.00 | 41 | 1012.5 |
| 20260505204600 | 48 | 311 | 6.0 | 17.0 | 0.00 | 0.00 | 0.00 | 40 | 1012.4 |
| 20260505204100 | 48 | 281 | 9.0 | 18.0 | 0.00 | 0.00 | 0.00 | 39 | 1012.7 |
| 20260505203558 | 48 | 321 | 8.0 | 18.0 | 0.00 | 0.00 | 0.00 | 39 | 1012.6 |
| 20260505203126 | 48 | 273 | 6.0 | 18.0 | 0.00 | 0.00 | 0.00 | 39 | 1012.7 |
| 20260505202558 | 48 | 304 | 6.0 | 18.0 | 0.00 | 0.00 | 0.00 | 40 | 1012.7 |
| 20260505202101 | 48 | 288 | 5.0 | 15.0 | 0.00 | 0.00 | 0.00 | 39 | 1012.7 |
| 20260505201600 | 48 | 273 | 7.0 | 15.0 | 0.00 | 0.00 | 0.00 | 39 | 1012.7 |
| 20260505201059 | 48 | 278 | 8.0 | 15.0 | 0.00 | 0.00 | 0.00 | 39 | 1012.7 |
| 20260505200559 | 48 | 261 | 7.0 | 15.0 | 0.00 | 0.00 | 0.00 | 39 | 1012.8 |
| 20260505200057 | 48 | 282 | 7.0 | 16.0 | 0.00 | 0.00 | 0.00 | 40 | 1012.7 |
| 20260505195559 | 48 | 258 | 7.0 | 16.0 | 0.00 | 0.00 | 0.00 | 40 | 1012.8 |
| 20260505195058 | 48 | 307 | 6.0 | 17.0 | 0.00 | 0.00 | 0.00 | 40 | 1012.8 |
| 20260505194559 | 48 | 342 | 6.0 | 17.0 | 0.00 | 0.00 | 0.00 | 39 | 1012.8 |
| 20260505194059 | 48 | 286 | 8.0 | 16.0 | 0.00 | 0.00 | 0.00 | 39 | 1012.8 |
| 20260505193558 | 48 | 294 | 6.0 | 15.0 | 0.00 | 0.00 | 0.00 | 41 | 1012.7 |
| 20260505193056 | 48 | 346 | 7.0 | 15.0 | 0.00 | 0.00 | 0.00 | 39 | 1012.7 |
| 20260505192602 | 48 | 297 | 7.0 | 17.0 | 0.00 | 0.00 | 0.00 | 39 | 1012.6 |
| 20260505192058 | 48 | 284 | 8.0 | 17.0 | 0.00 | 0.00 | 0.00 | 40 | 1012.7 |
| 20260505191558 | 49 | 292 | 7.0 | 17.0 | 0.00 | 0.00 | 0.00 | 40 | 1012.7 |
| 20260505191059 | 48 | 327 | 8.0 | 15.0 | 0.00 | 0.00 | 0.00 | 42 | 1012.7 |
| 20260505190557 | 48 | 323 | 7.0 | 15.0 | 0.00 | 0.00 | 0.00 | 44 | 1012.7 |
| 20260505190058 | 48 | 274 | 8.0 | 17.0 | 0.00 | 0.00 | 0.00 | 42 | 1012.7 |
| 20260505185559 | 48 | 317 | 5.0 | 17.0 | 0.00 | 0.00 | 0.00 | 43 | 1012.7 |
| 20260505185059 | 48 | 285 | 5.0 | 15.0 | 0.00 | 0.00 | 0.00 | 43 | 1012.7 |
| 20260505184556 | 47 | 277 | 7.0 | 15.0 | 0.00 | 0.00 | 0.00 | 43 | 1012.7 |
| 20260505184101 | 47 | 294 | 7.0 | 15.0 | 0.00 | 0.00 | 0.00 | 42 | 1012.7 |
| 20260505183602 | 47 | 313 | 7.0 | 15.0 | 0.00 | 0.00 | 0.00 | 42 | 1012.7 |
| 20260505183104 | 47 | 293 | 8.0 | 15.0 | 0.00 | 0.00 | 0.00 | 41 | 1012.7 |
| 20260505182602 | 47 | 323 | 6.0 | 16.0 | 0.00 | 0.00 | 0.00 | 43 | 1012.7 |
| 20260505182101 | 47 | 257 | 5.0 | 20.0 | 0.00 | 0.00 | 0.00 | 44 | 1012.7 |
| 20260505181556 | 46 | 290 | 7.0 | 20.0 | 0.00 | 0.00 | 0.00 | 41 | 1012.7 |
| 20260505181058 | 46 | 257 | 8.0 | 18.0 | 0.00 | 0.00 | 0.00 | 43 | 1012.7 |
| 20260505180558 | 46 | 284 | 9.0 | 18.0 | 0.00 | 0.00 | 0.00 | 43 | 1012.7 |
| 20260505180114 | 46 | 261 | 6.0 | 13.0 | 0.00 | 0.00 | 0.00 | 43 | 1012.7 |
| 20260505175558 | 46 | 327 | 5.0 | 16.0 | 0.00 | 0.00 | 0.00 | 44 | 1012.7 |
| 20260505175104 | 46 | 294 | 5.0 | 16.0 | 0.00 | 0.00 | 0.00 | 44 | 1012.7 |
| 20260505174556 | 46 | 244 | 8.0 | 16.0 | 0.00 | 0.00 | 0.00 | 43 | 1012.7 |
| 20260505174059 | 46 | 277 | 9.0 | 14.0 | 0.00 | 0.00 | 0.00 | 43 | 1012.7 |
| 20260505173603 | 46 | 279 | 7.0 | 14.0 | 0.00 | 0.00 | 0.00 | 44 | 1012.7 |
| 20260505173057 | 46 | 298 | 8.0 | 14.0 | 0.00 | 0.00 | 0.00 | 44 | 1012.7 |
| 20260505172600 | 46 | 298 | 5.0 | 12.0 | 0.00 | 0.00 | 0.00 | 46 | 1012.7 |
| 20260505172058 | 46 | 311 | 7.0 | 13.0 | 0.00 | 0.00 | 0.00 | 45 | 1012.6 |
| 20260505171559 | 45 | 259 | 4.0 | 13.0 | 0.00 | 0.00 | 0.00 | 47 | 1012.5 |
| 20260505171056 | 45 | 288 | 3.0 | 11.0 | 0.00 | 0.00 | 0.00 | 48 | 1012.6 |
| 20260505170558 | 45 | 311 | 5.0 | 12.0 | 0.00 | 0.00 | 0.00 | 48 | 1012.5 |
| 20260505170058 | 44 | 334 | 6.0 | 12.0 | 0.00 | 0.00 | 0.00 | 47 | 1012.5 |
| 20260505165558 | 44 | 285 | 5.0 | 15.0 | 0.00 | 0.00 | 0.00 | 48 | 1012.5 |
| 20260505165059 | 44 | 283 | 5.0 | 15.0 | 0.00 | 0.00 | 0.00 | 49 | 1012.5 |
| 20260505164602 | 45 | 257 | 5.0 | 15.0 | 0.00 | 0.00 | 0.00 | 50 | 1012.5 |
| 20260505164101 | 45 | 290 | 5.0 | 15.0 | 0.00 | 0.00 | 0.00 | 50 | 1012.5 |
| 20260505163559 | 45 | 286 | 4.0 | 13.0 | 0.00 | 0.00 | 0.00 | 49 | 1012.5 |
| 20260505163056 | 45 | 322 | 7.0 | 13.0 | 0.00 | 0.00 | 0.00 | 48 | 1012.4 |
| 20260505162559 | 45 | 284 | 4.0 | 13.0 | 0.00 | 0.00 | 0.00 | 48 | 1012.3 |
| 20260505162058 | 45 | 296 | 5.0 | 13.0 | 0.00 | 0.00 | 0.00 | 47 | 1012.2 |
| 20260505161556 | 44 | 302 | 5.0 | 13.0 | 0.00 | 0.00 | 0.00 | 46 | 1012.2 |
| 20260505161058 | 44 | 298 | 5.0 | 16.0 | 0.00 | 0.00 | 0.00 | 46 | 1012.4 |
| 20260505160558 | 45 | 304 | 7.0 | 16.0 | 0.00 | 0.00 | 0.00 | 47 | 1012.3 |
| 20260505153059 | 47 | 293 | 4.0 | 17.0 | 0.00 | 0.00 | 0.00 | 48 | 1012.2 |
| 20260505152601 | 47 | 315 | 5.0 | 17.0 | 0.00 | 0.00 | 0.00 | 47 | 1012.0 |
| 20260505152058 | 47 | 335 | 7.0 | 17.0 | 0.00 | 0.00 | 0.00 | 47 | 1012.1 |
| 20260505151557 | 47 | 306 | 4.0 | 14.0 | 0.00 | 0.00 | 0.00 | 49 | 1012.0 |
| 20260505151058 | 47 | 330 | 7.0 | 14.0 | 0.00 | 0.00 | 0.00 | 53 | 1012.1 |
| 20260505150558 | 46 | 274 | 4.0 | 14.0 | 0.00 | 0.00 | 0.00 | 52 | 1012.0 |
| 20260505140558 | 41 | 300 | 6.0 | 10.0 | 0.00 | 0.00 | 0.00 | 63 | 1011.8 |
| 20260505140116 | 41 | 290 | 5.0 | 9.0 | 0.00 | 0.00 | 0.00 | 65 | 1011.8 |
| 20260505124601 | 33 | 276 | 4.0 | 9.0 | 0.00 | 0.00 | 0.00 | 74 | 1010.8 |
| 20260505124100 | 33 | 252 | 4.0 | 9.0 | 0.00 | 0.00 | 0.00 | 74 | 1010.7 |
| 20260505123558 | 33 | 254 | 3.0 | 9.0 | 0.00 | 0.00 | 0.00 | 74 | 1010.7 |
| 20260505123100 | 32 | 277 | 2.0 | 8.0 | 0.00 | 0.00 | 0.00 | 74 | 1010.7 |
| 20260505122558 | 32 | 279 | 3.0 | 8.0 | 0.00 | 0.00 | 0.00 | 74 | 1010.4 |
| 20260505122058 | 32 | 263 | 2.0 | 8.0 | 0.00 | 0.00 | 0.00 | 74 | 1010.4 |
| 20260505121557 | 32 | 284 | 2.0 | 6.0 | 0.00 | 0.00 | 0.00 | 74 | 1010.4 |
| 20260505121058 | 32 | 274 | 2.0 | 6.0 | 0.00 | 0.00 | 0.00 | 74 | 1010.3 |
| 20260505120558 | 32 | 268 | 2.0 | 6.0 | 0.00 | 0.00 | 0.00 | 74 | 1010.1 |
| 20260505120112 | 31 | 277 | 3.0 | 6.0 | 0.00 | 0.00 | 0.00 | 74 | 1010.1 |
| 20260505115558 | 31 | 264 | 1.0 | 4.0 | 0.00 | 0.00 | 0.00 | 73 | 1010.0 |
| 20260505115059 | 31 | 298 | 2.0 | 4.0 | 0.00 | 0.00 | 0.00 | 73 | 1009.9 |
| 20260505114559 | 32 | 305 | 1.0 | 6.0 | 0.00 | 0.00 | 0.00 | 73 | 1009.8 |
| 20260505114059 | 32 | 333 | 2.0 | 6.0 | 0.00 | 0.00 | 0.00 | 73 | 1009.8 |
| 20260505113604 | 32 | 324 | 2.0 | 6.0 | 0.00 | 0.00 | 0.00 | 73 | 1009.9 |
| 20260505113104 | 32 | 286 | 2.0 | 6.0 | 0.00 | 0.00 | 0.00 | 73 | 1009.9 |
| 20260505112558 | 32 | 311 | 2.0 | 7.0 | 0.00 | 0.00 | 0.00 | 73 | 1009.8 |
| 20260505112058 | 32 | 298 | 3.0 | 7.0 | 0.00 | 0.00 | 0.00 | 73 | 1009.8 |
| 20260505111600 | 32 | 295 | 3.0 | 7.0 | 0.00 | 0.00 | 0.00 | 73 | 1009.7 |
| 20260505111059 | 32 | 317 | 2.0 | 6.0 | 0.00 | 0.00 | 0.00 | 73 | 1009.6 |
| 20260505110557 | 32 | 312 | 2.0 | 6.0 | 0.00 | 0.00 | 0.00 | 73 | 1009.6 |
| 20260505102058 | 32 | 313 | 2.0 | 7.0 | 0.00 | 0.00 | 0.00 | 71 | 1009.4 |
| 20260505101601 | 33 | 319 | 2.0 | 7.0 | 0.00 | 0.00 | 0.00 | 71 | 1009.4 |
| 20260505101058 | 33 | 296 | 2.0 | 4.0 | 0.00 | 0.00 | 0.00 | 71 | 1009.5 |
| 20260505100559 | 33 | 310 | 2.0 | 4.0 | 0.00 | 0.00 | 0.00 | 71 | 1009.5 |
| 20260505100100 | 33 | 289 | 1.0 | 4.0 | 0.00 | 0.00 | 0.00 | 71 | 1009.5 |
| 20260505095558 | 33 | 296 | 2.0 | 4.0 | 0.00 | 0.00 | 0.00 | 71 | 1009.5 |
| 20260505095100 | 33 | 294 | 2.0 | 4.0 | 0.00 | 0.00 | 0.00 | 71 | 1009.4 |
| 20260505094602 | 33 | 293 | 2.0 | 5.0 | 0.00 | 0.00 | 0.00 | 70 | 1009.5 |
| 20260505094100 | 34 | 286 | 1.0 | 5.0 | 0.00 | 0.00 | 0.00 | 70 | 1009.4 |
| 20260505093558 | 34 | 308 | 2.0 | 4.0 | 0.00 | 0.00 | 0.00 | 70 | 1009.4 |
| 20260505093057 | 34 | 308 | 1.0 | 5.0 | 0.00 | 0.00 | 0.00 | 70 | 1009.4 |
| 20260505092557 | 34 | 300 | 2.0 | 5.0 | 0.00 | 0.00 | 0.00 | 70 | 1009.4 |
| 20260505092057 | 34 | 298 | 2.0 | 5.0 | 0.00 | 0.00 | 0.00 | 70 | 1009.4 |
| 20260505091602 | 34 | 284 | 2.0 | 5.0 | 0.00 | 0.00 | 0.00 | 70 | 1009.4 |
| 20260505091057 | 34 | 306 | 2.0 | 8.0 | 0.00 | 0.00 | 0.00 | 70 | 1009.3 |
| 20260505090558 | 34 | 302 | 2.0 | 8.0 | 0.00 | 0.00 | 0.00 | 70 | 1009.1 |
| 20260505090059 | 34 | 286 | 2.0 | 6.0 | 0.00 | 0.00 | 0.00 | 70 | 1009.1 |
| 20260505085600 | 34 | 298 | 2.0 | 6.0 | 0.00 | 0.00 | 0.00 | 69 | 1009.1 |
| 20260505085055 | 34 | 318 | 3.0 | 7.0 | 0.00 | 0.00 | 0.00 | 69 | 1009.1 |
| 20260505084606 | 35 | 340 | 2.0 | 7.0 | 0.00 | 0.00 | 0.00 | 69 | 1009.1 |
| 20260505084058 | 35 | 296 | 2.0 | 5.0 | 0.00 | 0.00 | 0.00 | 68 | 1009.2 |
| 20260505083603 | 35 | 309 | 2.0 | 4.0 | 0.00 | 0.00 | 0.00 | 68 | 1009.2 |
| 20260505083106 | 35 | 325 | 2.0 | 5.0 | 0.00 | 0.00 | 0.00 | 68 | 1009.2 |
| 20260505082558 | 35 | 294 | 2.0 | 5.0 | 0.00 | 0.00 | 0.00 | 68 | 1009.2 |
| 20260505082058 | 35 | 275 | 2.0 | 4.0 | 0.00 | 0.00 | 0.00 | 68 | 1009.2 |
| 20260505081603 | 36 | 283 | 2.0 | 6.0 | 0.00 | 0.00 | 0.00 | 67 | 1009.2 |
| 20260505081059 | 36 | 281 | 2.0 | 6.0 | 0.00 | 0.00 | 0.00 | 67 | 1009.2 |
| 20260505080558 | 36 | 294 | 2.0 | 4.0 | 0.00 | 0.00 | 0.00 | 67 | 1009.2 |